Flag for U.S.A. Weather past 2 weeks in Binghamton, New York, U.S.A.

Now
62 °F

Sunny.


Feels Like: 62 °F
Forecast: 40 / 66 °F
Wind: 8 mph from Southeast

Location: Binghamton Regional Airport

Current Time: Apr 19, 2015 at 4:17:00 PM

Latest Report: Apr 19, 2015 at 2:53 PM


Visibility: 10 mi

Pressure: 30.11 "Hg

Humidity: 21%

Dew point: 22 °F

Location of BinghamtonLocation

Historic Weather in Binghamton — Graph

°F

Binghamton temperature yesterday

Maximum temperature yesterday: 72 °F (at 1:53 PM)
Minimum temperature yesterday: 45 °F (at 6:53 AM)
Average temperature yesterday: 56 °F

Past Weeks' High & Low Weather Summary

 TemperatureHumidityPressure
High73 °F (Apr 13, 3:53 PM)100% (Apr 5, 8:53 PM)30.44 "Hg (Apr 5, 8:53 PM)
Low27 °F (Apr 5, 4:01 AM)19% (Apr 16, 2:53 PM)29.64 "Hg (Apr 10, 4:00 PM)
Average45 °F68%30.14 "Hg
* Reported Apr 4 2:53 PM — Apr 19 2:53 PM, Binghamton, Weather by CustomWeather, © 2015

Note: Actual official high and low records may vary slightly from our data, if they occured in-between our weather recording intervals... More about our weather records

Advertising

Binghamton weather history for previous 24 hours

 ConditionsComfort  
Time TempWeatherWind HumidityBarometerVisibility
2:53 PM
Sun, Apr 19
62 °FSunny.8 mph21%30.11 "Hg10 mi
1:53 PM61 °FSunny.13 mph23%30.13 "Hg10 mi
12:53 PM58 °FSunny.6 mph28%30.17 "Hg10 mi
11:53 AM54 °FSunny.6 mph33%30.20 "Hg10 mi
10:53 AM51 °FSunny.8 mph39%30.22 "Hg10 mi
9:53 AM47 °FSunny.6 mph48%30.22 "Hg10 mi
8:53 AM44 °FSunny.12 mph53%30.22 "Hg10 mi
7:53 AM41 °FSunny.7 mph58%30.22 "Hg10 mi
6:53 AM38 °FClear.3 mph63%30.21 "Hg10 mi
5:53 AM37 °FClear.3 mph65%30.18 "Hg10 mi
4:53 AM38 °FClear.7 mph63%30.16 "Hg10 mi
3:53 AM40 °FClear.6 mph55%30.15 "Hg10 mi
2:53 AM42 °FClear.9 mph51%30.14 "Hg10 mi
1:53 AM44 °FClear.9 mph45%30.13 "Hg10 mi
12:53 AM46 °FClear.9 mph42%30.14 "Hg10 mi
11:53 PM
Sat, Apr 18
47 °FClear.7 mph41%30.14 "Hg10 mi
10:53 PM49 °FClear.8 mph41%30.12 "Hg10 mi
9:53 PM50 °FClear.9 mph41%30.12 "Hg10 mi
8:53 PM52 °FClear.13 mph38%30.10 "Hg10 mi
7:53 PM56 °FSunny.7 mph32%30.09 "Hg10 mi
6:53 PM60 °FSunny.17 mph26%30.05 "Hg10 mi
5:53 PM63 °FSunny.17 mph24%30.01 "Hg10 mi
4:53 PM66 °FSunny.16 mph37%29.97 "Hg10 mi
Weather by CustomWeather, © 2015

See weather overviewHow to use our weather pages